| time (UTC) | temp F | wind direction | speed MPH | gust MPH | rain 1hr in | rain 24hr in | rain mn in | humidity % | barometer mb |
| 20260504034600 | 48 | 0 | 0.0 | 0.0 | 0.00 | 0.00 | 0.00 | 84 | 1019.8 |
| 20260504033126 | 49 | 0 | 0.0 | 0.0 | 0.00 | 0.00 | 0.00 | 84 | 1020.1 |
| 20260504031557 | 50 | 0 | 0.0 | 0.0 | 0.00 | 0.00 | 0.00 | 83 | 1020.1 |
| 20260504030056 | 50 | 0 | 0.0 | 0.0 | 0.00 | 0.00 | 0.00 | 83 | 1019.7 |
| 20260504024556 | 51 | 0 | 0.0 | 0.0 | 0.00 | 0.00 | 0.00 | 83 | 1019.7 |
| 20260504023102 | 51 | 0 | 0.0 | 0.0 | 0.00 | 0.00 | 0.00 | 80 | 1019.6 |
| 20260504021556 | 52 | 0 | 0.0 | 0.0 | 0.00 | 0.00 | 0.00 | 77 | 1019.4 |
| 20260504020100 | 53 | 0 | 0.0 | 0.0 | 0.00 | 0.00 | 0.00 | 77 | 1019.2 |
| 20260504014555 | 54 | 0 | 0.0 | 0.0 | 0.00 | 0.00 | 0.00 | 75 | 1019.1 |
| 20260504013109 | 55 | 0 | 0.0 | 0.0 | 0.00 | 0.00 | 0.00 | 71 | 1019.0 |
| 20260504011556 | 55 | 0 | 0.0 | 0.0 | 0.00 | 0.00 | 0.00 | 68 | 1018.7 |
| 20260504010113 | 57 | 0 | 0.0 | 0.0 | 0.00 | 0.00 | 0.00 | 65 | 1018.6 |
| 20260504004610 | 58 | 0 | 0.0 | 0.0 | 0.00 | 0.00 | 0.00 | 62 | 1018.3 |
| 20260504003054 | 60 | 0 | 0.0 | 0.0 | 0.00 | 0.00 | 0.00 | 59 | 1018.2 |
| 20260504001604 | 62 | 0 | 0.0 | 0.0 | 0.00 | 0.00 | 0.00 | 57 | 1018.2 |
| 20260504000056 | 63 | 0 | 0.0 | 0.0 | 0.00 | 0.00 | 0.00 | 53 | 1018.2 |
| 20260503234556 | 65 | 0 | 0.0 | 1.0 | 0.00 | 0.00 | 0.00 | 48 | 1018.2 |
| 20260503233054 | 66 | 0 | 0.0 | 1.0 | 0.00 | 0.00 | 0.00 | 49 | 1018.1 |
| 20260503231555 | 67 | 0 | 0.0 | 1.0 | 0.00 | 0.00 | 0.00 | 44 | 1018.2 |
| 20260503224554 | 70 | 0 | 0.0 | 1.0 | 0.00 | 0.00 | 0.00 | 39 | 1018.2 |
| 20260503223059 | 71 | 335 | 0.0 | 2.0 | 0.00 | 0.00 | 0.00 | 36 | 1018.2 |
| 20260503221554 | 73 | 0 | 0.0 | 2.0 | 0.00 | 0.00 | 0.00 | 39 | 1018.3 |
| 20260503220054 | 74 | 0 | 0.0 | 3.0 | 0.00 | 0.00 | 0.00 | 35 | 1018.4 |
| 20260503214554 | 74 | 287 | 1.0 | 2.0 | 0.00 | 0.00 | 0.00 | 35 | 1018.4 |
| 20260503213106 | 75 | 214 | 1.0 | 5.0 | 0.00 | 0.00 | 0.00 | 35 | 1018.4 |
| 20260503211553 | 75 | 257 | 1.0 | 6.0 | 0.00 | 0.00 | 0.00 | 33 | 1018.6 |
| 20260503210100 | 74 | 288 | 0.0 | 4.0 | 0.00 | 0.00 | 0.00 | 35 | 1018.6 |
| 20260503204555 | 73 | 69 | 1.0 | 5.0 | 0.00 | 0.00 | 0.00 | 39 | 1018.6 |
| 20260503203101 | 73 | 56 | 1.0 | 8.0 | 0.00 | 0.00 | 0.00 | 36 | 1019.0 |
| 20260503201552 | 72 | 266 | 2.0 | 6.0 | 0.00 | 0.00 | 0.00 | 39 | 1019.3 |
| 20260503200100 | 72 | 278 | 1.0 | 3.0 | 0.00 | 0.00 | 0.00 | 39 | 1019.4 |
| 20260503194555 | 71 | 0 | 2.0 | 5.0 | 0.00 | 0.00 | 0.00 | 39 | 1019.6 |
| 20260503193056 | 72 | 13 | 1.0 | 6.0 | 0.00 | 0.00 | 0.00 | 36 | 1019.7 |
| 20260503191608 | 72 | 257 | 1.0 | 3.0 | 0.00 | 0.00 | 0.00 | 38 | 1019.8 |
| 20260503190051 | 70 | 139 | 1.0 | 6.0 | 0.00 | 0.00 | 0.00 | 37 | 1020.1 |
| 20260503184559 | 70 | 82 | 1.0 | 8.0 | 0.00 | 0.00 | 0.00 | 38 | 1020.5 |
| 20260503183112 | 70 | 89 | 0.0 | 3.0 | 0.00 | 0.00 | 0.00 | 36 | 1020.7 |
| 20260503181551 | 70 | 306 | 2.0 | 6.0 | 0.00 | 0.00 | 0.00 | 35 | 1020.8 |
| 20260503180052 | 69 | 163 | 0.0 | 8.0 | 0.00 | 0.00 | 0.00 | 38 | 1021.0 |
| 20260503174553 | 69 | 294 | 1.0 | 5.0 | 0.00 | 0.00 | 0.00 | 40 | 1021.1 |
| 20260503173114 | 69 | 341 | 1.0 | 6.0 | 0.00 | 0.00 | 0.00 | 37 | 1021.3 |
| 20260503171554 | 69 | 153 | 0.0 | 3.0 | 0.00 | 0.00 | 0.00 | 40 | 1021.4 |
| 20260503120114 | 41 | 0 | 0.0 | 0.0 | 0.00 | 0.02 | 0.00 | 94 | 1021.2 |
| 20260503100104 | 40 | 0 | 0.0 | 0.0 | 0.00 | 0.04 | 0.00 | 92 | 1020.0 |
| 20260503081556 | 42 | 0 | 0.0 | 0.0 | 0.00 | 0.05 | 0.00 | 92 | 1019.7 |
| 20260503071557 | 43 | 0 | 0.0 | 0.0 | 0.00 | 0.07 | 0.00 | 91 | 1019.1 |
| 20260503070106 | 43 | 0 | 0.0 | 0.0 | 0.00 | 0.07 | 0.00 | 91 | 1018.8 |
| 20260503054553 | 44 | 0 | 0.0 | 0.0 | 0.00 | 0.10 | 0.00 | 90 | 1018.8 |
| 20260503053055 | 44 | 0 | 0.0 | 0.0 | 0.00 | 0.10 | 0.00 | 90 | 1019.0 |
| 20260503051554 | 44 | 0 | 0.0 | 0.0 | 0.00 | 0.10 | 0.00 | 89 | 1018.8 |
| 20260503050055 | 45 | 0 | 0.0 | 0.0 | 0.00 | 0.10 | 0.00 | 89 | 1018.6 |
| 20260503044555 | 45 | 0 | 0.0 | 0.0 | 0.00 | 0.10 | 0.00 | 88 | 1018.4 |
| 20260503043054 | 45 | 0 | 0.0 | 0.0 | 0.00 | 0.10 | 0.00 | 88 | 1018.2 |
| 20260503041605 | 46 | 0 | 0.0 | 0.0 | 0.00 | 0.10 | 0.00 | 86 | 1018.3 |
| 20260503040058 | 46 | 0 | 0.0 | 0.0 | 0.00 | 0.10 | 0.00 | 85 | 1018.4 |